Regional Weather Roundup
Issued by NWS

Home | Current Version | Previous Version | Text Only | Print | Product List | Glossary On
Versions: 1 2 3 4 5 6 7 8 9 10 11 12 13 14 15 16 17 18 19 20 21 22 23 24 25 26 27 28 29 30 31 32 33 34 35 36 37 38 39 40 41 42 43 44 45 46 47 48 49 50
000
ASUS46 KPQR 281010
RWROR

OREGON REGIONAL WEATHER ROUNDUP
NATIONAL WEATHER SERVICE PORTLAND OR
200 AM PST FRI NOV 28 2014

NOTE: "FAIR" INDICATES FEW OR NO CLOUDS BELOW 12,000 FEET WITH
NO SIGNIFICANT WEATHER AND/OR OBSTRUCTIONS TO VISIBILITY.

ORZ001>013-281100-
NORTHWEST OREGON


CITY           SKY/WX    TMP DP  RH WIND       PRES   REMARKS
ASTORIA        CLOUDY    56  53  90 S14G24    29.71F
NEWPORT        RAIN      54  52  94 S15G21    29.80F
PORTLAND       CLOUDY    54  51  90 S10       29.78F
VANCOUVER WA   CLOUDY    54  49  83 S5        29.77F
SCAPPOOSE      CLOUDY    53  51  93 SE8       29.75F
HILLSBORO      CLOUDY    52  51  97 S13       29.75F
AURORA         RAIN      52  50  93 S18G31    29.79F FOG
MCMINNVILLE    LGT RAIN  53  51  93 S7        29.78F
SALEM          LGT RAIN  53  50  89 SW7       29.78F
CORVALLIS      CLOUDY    54  48  82 S7        29.80F
EUGENE         CLOUDY    52  49  89 SW9       29.81F
$$

ORZ021-028-281100-
SOUTHWEST OREGON


CITY           SKY/WX    TMP DP  RH WIND       PRES   REMARKS
NORTH BEND     CLOUDY    55  55 100 SE9       29.82F
BROOKINGS      CLOUDY    57  51  80 VRB6      29.90F
ROSEBURG       CLOUDY    52  49  89 CALM      29.84F
SEXTON SUMMIT  CLOUDY    44  37  76 S16G29    29.86F
MEDFORD        CLOUDY    47  44  90 CALM      29.88F
$$

ORZ014>016-041-281100-
COLUMBIA GORGE


CITY           SKY/WX    TMP DP  RH WIND       PRES   REMARKS
TROUTDALE      LGT RAIN  55  50  83 SW14G21   29.77F
THE DALLES     CLOUDY    52  49  89 CALM      29.76S
$$

ORZ029>031-041-044-049-050-061>064-502-503-505>511-281100-
EASTERN OREGON


CITY           SKY/WX    TMP DP  RH WIND       PRES   REMARKS
REDMOND        MOCLDY    49  38  65 S17G29    29.83F
BEND           MOCLDY    46  37  71 S12G22    29.85F
PRINEVILLE     CLOUDY    50  36  57 S13       29.86F
KLAMATH FALLS  CLOUDY    44  26  49 S9        29.96F
LAKEVIEW       CLOUDY    39  27  60 S9        30.02S WCI  33
HERMISTON      CLOUDY    53  46  77 S7        29.75F
PENDLETON      LGT RAIN  55  44  66 SW15      29.76S
JOHN DAY       CLOUDY    52  33  49 SW18      29.90S
MEACHAM        RAIN      46  43  89 CALM      29.82S FOG
LA GRANDE      CLOUDY    48  37  66 S6        29.83F
BAKER CITY     CLOUDY    47  39  74 SE12G17   29.88F
BURNS          CLOUDY    36  33  89 CALM      29.94F
ROME             N/A     47  13  25 S12       29.94F
ONTARIO        CLOUDY    40  38  93 NE3       29.95S FOG
$$


USA.gov is the U.S. government's official web portal to all federal, state and local government web resources and services.